This is the latest recevied weather packets stored in our database for station/object KI4MRC. If no packets are shown the sender has not sent any weather packets the latest 10 day(s).
| Time | Temp. | Humidity | Pressure | Rain* | Wind** | Luminosity | Snow |
|---|---|---|---|---|---|---|---|
| 1778107046 | 28.89° C | 51% | 1015.7 hPa | 0 mm | - | 55 W/m² | - |
| 1778106742 | 28.89° C | 50% | 1015.7 hPa | 0 mm | - | 42 W/m² | - |
| 1778106439 | 28.89° C | 50% | 1015.4 hPa | 0 mm | - | 46 W/m² | - |
| 1778106135 | 28.89° C | 49% | 1015.5 hPa | 0 mm | - | 35 W/m² | - |
| 1778105833 | 29.44° C | 46% | 1015.6 hPa | 0 mm | - | 34 W/m² | - |
| 1778105531 | 29.44° C | 48% | 1015.6 hPa | 0 mm | - | 33 W/m² | - |
| 1778105228 | 29.44° C | 47% | 1015.4 hPa | 0 mm | - | 33 W/m² | - |
| 1778104922 | 29.44° C | 46% | 1015.3 hPa | 0 mm | - | 34 W/m² | - |
| 1778104619 | 29.44° C | 47% | 1015.2 hPa | 0 mm | - | 34 W/m² | - |
| 1778104314 | 29.44° C | 48% | 1015.3 hPa | 0 mm | - | 35 W/m² | - |
| 1778104012 | 29.44° C | 48% | 1015.6 hPa | 0 mm | - | 49 W/m² | - |
| 1778103709 | 29.44° C | 48% | 1015.5 hPa | 0 mm | - | 37 W/m² | - |
| 1778103407 | 29.44° C | 49% | 1015.5 hPa | 0 mm | - | 38 W/m² | - |
| 1778103105 | 30° C | 46% | 1015.4 hPa | 0 mm | - | 107 W/m² | - |
| 1778102802 | 30° C | 48% | 1015.4 hPa | 0 mm | - | 48 W/m² | - |
| 1778102502 | 30° C | 47% | 1015.5 hPa | 0 mm | - | 40 W/m² | - |
| 1778102198 | 30° C | 46% | 1015.4 hPa | 0 mm | - | 40 W/m² | - |
| 1778101895 | 30° C | 48% | 1015.5 hPa | 0 mm | - | 49 W/m² | - |
| 1778101592 | 30° C | 47% | 1015.4 hPa | 0 mm | - | 41 W/m² | - |
| 1778101289 | 30° C | 48% | 1015.4 hPa | 0 mm | - | 42 W/m² | - |
| 1778100986 | 30° C | 48% | 1015.2 hPa | 0 mm | - | 44 W/m² | - |
| 1778100680 | 30° C | 48% | 1015.5 hPa | 0 mm | - | 48 W/m² | - |
| 1778100379 | 30° C | 50% | 1015.2 hPa | 0 mm | - | 55 W/m² | - |
| 1778100075 | 30° C | 49% | 1015.4 hPa | 0 mm | - | 108 W/m² | - |
| 1778099774 | 30° C | 51% | 1015.4 hPa | 0 mm | - | 235 W/m² | - |
* Rain latest hour (hover to see other rain measurements)
** Current wind speed in m/s (hover to see current wind gust speed)